Stations météo

réclame
Mon MeteoGroup
Kolmaardenstroemsfors, Suède (2558): Température de l'air & dewpoint: 13.10.2017 14:00:00 - 19.10.2017 14:00:00 (CEST)Kolmaardenstroemsfors, Suède (2558): Vitesse du vent & gusts: 13.10.2017 14:00:00 - 19.10.2017 14:00:00 (CEST)Kolmaardenstroemsfors, Suède (2558): Direction du vent: 13.10.2017 14:00:00 - 19.10.2017 14:00:00 (CEST)Kolmaardenstroemsfors, Suède (2558): reduced air pressure: 13.10.2017 14:00:00 - 19.10.2017 14:00:00 (CEST)Kolmaardenstroemsfors, Suède (2558): visibility: 13.10.2017 14:00:00 - 19.10.2017 14:00:00 (CEST)Kolmaardenstroemsfors, Suède (2558): Quantités de précipitations: 13.10.2017 14:00:00 - 19.10.2017 14:00:00 (CEST)
Date & Time tt [°C] td [°C] ff [km/h] ff [knt] fx [km/h] fx [knt] dd ppp [hPa] vv [km] rr [mm]
19.10.2017 14:00:00 9,3 2,2 5 3 11 6 SSW 1021,2 47 0,0
19.10.2017 13:00:00 9,1 2,4 2 1 9 5 N 1021,3 48 0,0
19.10.2017 12:00:00 8,3 2,3 3 2 12 6 E 1021,2 47 0,0
19.10.2017 11:00:00 7,5 1,8 4 2 17 9 ENE 1021,1 50 0,0
19.10.2017 10:00:00 5,2 2,0 7 4 17 9 N 1021,0 50 0,0
19.10.2017 09:00:00 3,6 1,6 10 5 17 9 N 1020,7 50 0,0
19.10.2017 08:00:00 2,6 1,4 9 5 18 10 N 1020,2 50 0,0
19.10.2017 07:00:00 2,6 1,6 10 5 18 10 N 1019,7 50 0,0
19.10.2017 06:00:00 3,0 1,8 10 5 19 10 N 1019,3 50 0,0
19.10.2017 05:00:00 3,2 1,7 10 5 19 10 N 1019,2 50 0,0
19.10.2017 04:00:00 3,5 2,0 10 5 19 10 NNW 1019,0 50 0,0
19.10.2017 03:00:00 3,8 2,0 9 5 18 10 NNW 1018,8 50 0,0
19.10.2017 02:00:00 3,9 2,3 10 5 18 10 NNW 1018,6 50 0,0
19.10.2017 01:00:00 3,8 2,2 10 6 22 12 NNW 1018,3 50 0,0
19.10.2017 00:00:00 4,1 2,5 12 6 22 12 NNW 1018,1 50 0,0
18.10.2017 23:00:00 3,8 2,8 11 6 20 11 NW 1017,8 50 0,0
18.10.2017 22:00:00 4,5 3,0 10 6 20 11 NW 1017,4 50 0,0
18.10.2017 21:00:00 5,2 3,4 11 6 20 11 NW 1016,9 50 0,0
18.10.2017 20:00:00 5,4 3,2 8 4 16 8 WNW 1016,4 50 0,0
18.10.2017 19:00:00 6,1 3,8 8 5 14 8 WNW 1016,0 50 0,0
18.10.2017 18:00:00 6,9 3,9 8 4 19 10 WNW 1015,3 50 0,0
18.10.2017 17:00:00 8,4 3,8 8 4 19 11 W 1014,6 50 0,0
18.10.2017 16:00:00 9,1 3,9 8 5 20 11 W 1014,2 50 0,0
18.10.2017 15:00:00 9,2 3,4 10 5 20 11 W 1013,9 50 0,0
18.10.2017 14:00:00 9,4 4,0 8 4 19 11 W 1013,8 50 0,0
18.10.2017 13:00:00 8,2 4,2 9 5 19 11 NW 1013,4 48 0,0
18.10.2017 12:00:00 7,7 4,6 9 5 19 10 NW 1012,9 44 0,0
18.10.2017 11:00:00 6,0 4,2 6 3 21 12 NW 1012,5 50 0,0
18.10.2017 10:00:00 5,5 4,5 10 5 29 16 N 1011,5 50 0,0
18.10.2017 09:00:00 5,4 4,2 15 8 33 18 N 1010,2 50 0,0
18.10.2017 08:00:00 5,9 5,5 15 8 33 18 N 1008,8 50 0,0
18.10.2017 07:00:00 7,5 6,9 15 8 29 16 NNW 1007,3 3,8 0,8
18.10.2017 06:00:00 10,2 9,7 11 6 37 20 W 1005,5 35 0,6
18.10.2017 05:00:00 10,1 9,6 10 6 37 20 W 1004,8 3,4 1,2
18.10.2017 04:00:00 10,1 9,6 16 9 34 18 WSW 1004,2 3,4 0,6
18.10.2017 03:00:00 10,1 9,6 14 8 35 19 WSW 1004,1 5 0,4
18.10.2017 02:00:00 10,0 9,5 10 5 42 23 WSW 1004,2 3,3 1,3
18.10.2017 01:00:00 11,3 8,3 16 8 42 23 WSW 1003,9 11 0,0
18.10.2017 00:00:00 11,7 7,8 15 8 41 22 WSW 1003,9 25 0,0
17.10.2017 23:00:00 11,9 7,8 18 10 44 24 WSW 1004,3 23 0,0
17.10.2017 22:00:00 11,7 8,0 13 7 46 25 SW 1004,8 19 0,0
17.10.2017 21:00:00 11,4 8,3 18 10 35 19 WSW 1005,0 14 0,0
17.10.2017 20:00:00 11,4 8,1 19 10 36 19 SW 1005,5 22 0,0
17.10.2017 19:00:00 11,7 7,8 13 7 39 21 SW 1006,0 27 0,0
17.10.2017 18:00:00 12,5 7,4 17 9 39 21 SW 1006,2 30 0,0
17.10.2017 17:00:00 12,8 7,3 12 7 41 22 WSW 1006,5 26 0,0
17.10.2017 16:00:00 13,4 7,0 20 11 41 22 WSW 1006,8 24 0,0
17.10.2017 15:00:00 14,2 7,5 17 9 46 25 WSW 1006,9 19 0,0
17.10.2017 14:00:00 14,8 7,8 22 12 46 25 WSW 1007,1 18 0,0
17.10.2017 13:00:00 15,9 9,6 19 11 42 23 WSW 1007,1 18 0,0
17.10.2017 12:00:00 14,2 12,6 13 7 36 19 SSW 1007,6 7 0,0
17.10.2017 11:00:00 11,7 11,4 8 4 22 12 SSW 1008,5 1,8 0,0
17.10.2017 10:00:00 10,3 10,0 8 4 23 13 S 1009,3 2,2 0,0
17.10.2017 09:00:00 9,5 9,2 10 5 23 13 SSE 1010,7 11 0,0
17.10.2017 08:00:00 9,1 8,8 10 6 21 11 SE 1011,0 6 0,0
17.10.2017 07:00:00 9,0 8,7 9 5 17 9 SSE 1012,3 1,9 0,0
17.10.2017 06:00:00 9,1 8,6 4 2 8 4 S 1014,5 8 0,0
17.10.2017 05:00:00 9,2 8,4 3 2 13 7 SSW 1015,4 15 0,0
17.10.2017 04:00:00 9,5 8,4 3 2 18 10 WSW 1015,7 18 0,0
17.10.2017 03:00:00 9,8 8,4 7 4 18 10 W 1016,6 21 0,0
17.10.2017 02:00:00 9,7 8,3 7 4 16 9 W 1016,3 23 0,0
17.10.2017 01:00:00 9,7 8,0 5 3 19 11 WSW 1015,5 23 0,0
17.10.2017 00:00:00 10,2 8,1 8 4 21 11 WSW 1015,7 26 0,0
16.10.2017 23:00:00 10,3 8,2 9 5 27 14 W 1016,1 23 0,0
16.10.2017 22:00:00 9,9 7,7 8 4 27 14 WSW 1016,0 23 0,0
16.10.2017 21:00:00 11,0 7,7 11 6 22 12 W 1016,0 23 0,0
16.10.2017 20:00:00 11,2 7,7 10 6 19 10 W 1015,5 23 0,0
16.10.2017 19:00:00 11,7 8,2 9 5 18 10 WSW 1014,7 23 0,0
16.10.2017 18:00:00 12,5 8,4 8 4 20 11 W 1014,6 25 0,0
16.10.2017 17:00:00 13,8 8,2 8 5 32 18 W 1013,3 30 0,0
16.10.2017 16:00:00 14,6 8,1 13 7 42 23 W 1012,7 29 0,0
16.10.2017 15:00:00 15,4 8,6 14 7 42 23 W 1012,2 30 0,0
16.10.2017 14:00:00 15,1 9,0 16 9 42 23 W 1012,3 29 0,0
16.10.2017 13:00:00 14,7 9,3 17 9 41 22 W 1011,9 32 0,0
16.10.2017 12:00:00 14,5 9,9 18 10 47 25 W 1011,1 34 0,0
16.10.2017 11:00:00 14,4 10,2 18 10 47 25 W 1010,7 35 0,0
16.10.2017 10:00:00 14,3 10,1 19 10 46 25 W 1010,0 40 0,0
16.10.2017 09:00:00 14,3 10,5 24 13 46 25 WSW 1009,3 46 0,0
16.10.2017 08:00:00 14,3 10,7 18 10 46 25 WSW 1009,1 42 0,0
16.10.2017 07:00:00 13,9 11,6 16 9 40 21 WSW 1008,7 14 0,0
16.10.2017 06:00:00 14,1 11,6 15 8 40 21 WSW 1009,1 11 0,0
16.10.2017 05:00:00 13,5 11,2 14 8 25 14 SW 1009,6 15 0,0
16.10.2017 04:00:00 12,6 10,7 9 5 29 16 SW 1010,5 16 0,0
16.10.2017 03:00:00 12,1 10,3 12 7 29 16 SW 1010,8 20 0,0
16.10.2017 02:00:00 12,2 10,6 12 7 30 16 SW 1011,8 26 0,0
16.10.2017 01:00:00 12,3 10,7 11 6 30 16 SW 1012,6 39 0,0
16.10.2017 00:00:00 12,0 10,6 14 8 30 16 SW 1013,2 38 0,0
15.10.2017 23:00:00 11,8 10,2 13 7 30 16 SW 1013,8 37 0,0
15.10.2017 22:00:00 12,1 9,8 14 8 30 16 SSW 1014,4 32 0,0
15.10.2017 21:00:00 11,4 8,4 13 7 23 12 SSW 1015,4 24 0,0
15.10.2017 20:00:00 11,1 7,8 9 5 18 10 S 1015,8 22 0,0
15.10.2017 19:00:00 10,3 7,7 7 4 17 9 S 1016,8 19 0,0
15.10.2017 18:00:00 10,9 8,3 7 4 18 10 S 1016,9 16 0,0
15.10.2017 17:00:00 11,3 8,2 7 4 21 12 SSW 1017,3 17 0,0
15.10.2017 16:00:00 11,9 7,4 5 3 21 12 WSW 1018,3 24 0,0
15.10.2017 15:00:00 12,6 6,6 9 5 27 15 WSW 1018,5 24 0,0
15.10.2017 14:00:00 12,6 5,7 11 6 27 15 W 1018,3 32 0,0
15.10.2017 13:00:00 13,7 6,1 12 7 27 15 W 1018,1 24 0,0
15.10.2017 12:00:00 12,3 6,3 12 6 25 14 W 1018,1 21 0,0
15.10.2017 11:00:00 11,8 6,3 8 4 24 13 W 1017,9 23 0,0
15.10.2017 10:00:00 10,6 7,1 10 5 24 13 W 1017,7 19 0,0
15.10.2017 09:00:00 8,8 6,8 6 3 22 12 W 1016,9 16 0,0
15.10.2017 08:00:00 8,1 6,2 8 4 22 12 W 1016,6 17 0,0
15.10.2017 07:00:00 8,3 6,6 8 5 19 11 W 1015,9 14 0,0
15.10.2017 06:00:00 8,8 7,1 8 5 27 14 W 1015,3 14 0,0
15.10.2017 05:00:00 9,2 7,6 9 5 27 14 W 1014,3 13 0,0
15.10.2017 04:00:00 9,4 8,0 10 5 27 14 W 1013,8 12 0,0
15.10.2017 03:00:00 10,0 8,4 11 6 29 16 W 1013,7 12 0,0
15.10.2017 02:00:00 10,3 8,4 12 7 29 16 WSW 1013,3 13 0,0
15.10.2017 01:00:00 10,5 8,4 16 9 29 15 W 1012,7 13 0,0
15.10.2017 00:00:00 10,5 8,4 13 7 32 17 WSW 1012,5 14 0,0
14.10.2017 23:00:00 10,6 8,5 11 6 32 17 WSW 1012,2 15 0,0
14.10.2017 22:00:00 10,7 8,5 14 7 37 20 W 1012,0 16 0,0
14.10.2017 21:00:00 10,6 8,7 12 6 37 20 WSW 1011,9 15 0,0
14.10.2017 20:00:00 11,2 8,8 15 8 33 18 W 1011,5 17 0,0
14.10.2017 19:00:00 11,4 9,7 14 8 32 18 W 1011,6 19 0,0
14.10.2017 18:00:00 11,6 9,7 14 8 34 18 WSW 1011,0 22 0,0
14.10.2017 17:00:00 12,4 9,8 17 9 34 18 WSW 1010,6 27 0,0
14.10.2017 16:00:00 13,0 10,2 13 7 36 19 W 1010,4 35 0,0
14.10.2017 15:00:00 13,7 10,1 16 9 38 21 W 1010,2 31 0,0
14.10.2017 14:00:00 14,2 11,0 18 10 38 21 W 1009,8 41 0,0
14.10.2017 13:00:00 13,7 11,6 13 7 39 21 W 1009,7 46 0,0
14.10.2017 12:00:00 14,1 12,0 13 7 39 21 W 1009,4 37 -
14.10.2017 11:00:00 14,0 13,4 16 8 32 17 W 1009,0 21 0,1
14.10.2017 10:00:00 14,1 13,6 14 7 33 18 WSW 1008,7 45 0,0
14.10.2017 09:00:00 13,7 13,4 14 8 33 18 WSW 1008,3 30 0,1
14.10.2017 08:00:00 13,0 12,7 11 6 33 18 WSW 1008,3 3,1 0,0
14.10.2017 07:00:00 11,7 11,4 11 6 22 12 SW 1008,5 0,4 0,0
14.10.2017 06:00:00 10,4 10,1 8 5 18 10 SSW 1008,9 0,2 0,0
14.10.2017 05:00:00 9,8 9,7 9 5 21 11 SSW 1009,6 0,2 0,2
14.10.2017 04:00:00 8,9 8,8 7 4 25 14 S 1010,4 0,3 0,7
14.10.2017 03:00:00 8,5 8,2 9 5 25 14 S 1011,0 0,3 0,2
14.10.2017 02:00:00 8,0 7,7 11 6 25 13 S 1012,1 0,2 0,8
14.10.2017 01:00:00 7,3 7,0 9 5 19 10 S 1013,1 0,3 2,9
14.10.2017 00:00:00 6,8 6,2 8 4 14 8 SSE 1013,9 14 0,7
13.10.2017 23:00:00 6,8 5,9 7 4 13 7 SSE 1015,2 26 0,2
13.10.2017 22:00:00 7,0 5,6 7 4 13 7 SSE 1016,2 50 0,2
13.10.2017 21:00:00 7,4 4,5 5 3 13 7 S 1016,4 50 0,0
13.10.2017 20:00:00 7,4 4,7 5 3 15 8 S 1016,5 50 0,0
13.10.2017 19:00:00 7,6 4,7 5 3 15 8 SW 1017,0 50 0,0
13.10.2017 18:00:00 7,9 3,9 4 2 10 5 WSW 1016,9 50 0,0
13.10.2017 17:00:00 8,5 3,5 0 0 19 10 N 1017,1 50 0,0
13.10.2017 16:00:00 9,1 3,3 5 3 19 11 WNW 1017,0 50 0,0
13.10.2017 15:00:00 9,6 2,4 9 5 19 11 W 1016,9 50 0,0
13.10.2017 14:00:00 9,1 2,9 9 5 20 11 NW 1016,6 50 0,0

tt = Température de l'air
td = dewpoint
ff = Vitesse du vent
fx = gusts
dd = Direction du vent
ppp = reduced air pressure
vv = visibility
rr = Quantités de précipitations

stations d'obs. à proximité